This is the latest recevied weather packets stored in our database for station/object SV2RIM-2. If no packets are shown the sender has not sent any weather packets the latest 10 day(s).
| Time | Temp. | Humidity | Pressure | Rain* | Wind** | Luminosity | Snow |
|---|---|---|---|---|---|---|---|
| 1787991619 | 27.22° C | 63% | 1018.4 hPa | - | - | - | - |
| 1787991019 | 27.22° C | 64% | 1018.4 hPa | - | - | - | - |
| 1787990419 | 26.67° C | 65% | 1018.4 hPa | - | - | - | - |
| 1787989818 | 26.67° C | 65% | 1018.3 hPa | - | - | - | - |
| 1787989219 | 26.11° C | 67% | 1018.3 hPa | - | - | - | - |
| 1787988619 | 26.11° C | 67% | 1018.2 hPa | - | - | - | - |
| 1787988018 | 25.56° C | 68% | 1018.2 hPa | - | - | - | - |
| 1787987419 | 25.56° C | 69% | 1018.2 hPa | - | - | - | - |
| 1787986819 | 25.56° C | 69% | 1018.1 hPa | - | - | - | - |
| 1787986219 | 25.56° C | 70% | 1018.1 hPa | - | - | - | - |
| 1787985619 | 25° C | 71% | 1018.1 hPa | - | - | - | - |
| 1787985019 | 25° C | 72% | 1018.1 hPa | - | - | - | - |
| 1787984418 | 25° C | 72% | 1018.1 hPa | - | - | - | - |
| 1787983819 | 25° C | 71% | 1018 hPa | - | - | - | - |
| 1787983219 | 25° C | 71% | 1018 hPa | - | - | - | - |
| 1787982619 | 24.44° C | 71% | 1017.9 hPa | - | - | - | - |
| 1787982018 | 24.44° C | 71% | 1017.9 hPa | - | - | - | - |
| 1787981419 | 24.44° C | 71% | 1017.8 hPa | - | - | - | - |
| 1787980819 | 23.89° C | 72% | 1017.8 hPa | - | - | - | - |
| 1787980218 | 23.89° C | 71% | 1017.7 hPa | - | - | - | - |
| 1787979619 | 24.44° C | 70% | 1017.6 hPa | - | - | - | - |
| 1787979018 | 24.44° C | 70% | 1017.8 hPa | - | - | - | - |
| 1787978419 | 24.44° C | 70% | 1017.9 hPa | - | - | - | - |
| 1787977819 | 23.89° C | 70% | 1018 hPa | - | - | - | - |
| 1787977220 | 24.44° C | 70% | 1017.8 hPa | - | - | - | - |
* Rain since midnight (hover to see other rain measurements)
** Current wind speed in m/s (hover to see current wind gust speed)